Dewpoint
18 17 16 16 15 21 31 30 29 25 20 19 17 12 9 7 5 2 8 9 11 12 12 7 8 7 8 10 14 16 19 19 21 27 39 39 48 44 43 47 50 49 48 49 58 58 56 58 60 62 63 63 63 64 63 63 63 64 63 63 63 64 63 62 59 59 58 57 58 61 57 56 61 56 60 61 60 59 59 59 56 57 59 60 61 61
23 18 21 20 21 29 29 31 31 26 25 19 17 14 7 6 9 4 11 14 15 22 13 14 10 9 10 12 16 17 20 17 21 24 28 36 44 41 42 43 45 48 48 49 55 54 55 55 61 63 63 63 62 62 63 63 63 63 64 63 63 63 63 63 63 64 62 63 56 59 55 55 53 50 55 57 59 59 61 63 62 64 63 61 63 62
23 17 17 20 26 28 27 29 26 25 22 18 14 12 8 6 6 11 19 17 15 19 16 10 9 10 11 13 16 19 21 22 24 26 27 28 27 38 36 41 47 48 49 49 53 52 52 58 60 62 64 64 63 63 62 63 63 63 63 63 62 62 62 62 63 61 61 61 62 62 61 60 55 57 59 56 58 59 53 62 61 64 64 63 58 61
18 14 20 14 29 26 24 24 24 24 24 16 15 12 6 7 8 8 26 18 19 20 18 14 13 19 20 18 20 22 19 25 28 24 30 30 29 29 41 44 47 50 50 50 52 53 53 55 58 61 63 63 63 63 62 62 62 62 63 63 61 61 61 62 61 61 61 62 61 61 60 60 59 57 58 59 60 58 58 56 59 61 64 61 58 57
10 19 23 26 24 23 22 21 22 23 13 20 20 12 10 9 7 5 20 24 29 28 28 20 22 18 19 16 17 22 21 25 22 20 21 24 21 34 47 49 49 49 51 50 51 53 53 52 54 59 61 62 62 62 61 62 61 62 63 62 61 60 60 60 61 61 61 61 60 61 60 58 57 58 59 58 58 57 56 57 60 61 62 59 59 59
7 26 28 20 18 20 22 18 19 24 17 16 21 19 16 16 16 15 21 20 24 21 25 23 15 14 15 15 15 15 19 20 21 22 19 21 24 23 33 45 50 52 51 52 52 52 54 55 56 61 62 61 61 61 62 62 62 62 62 61 60 60 60 59 61 60 60 60 59 59 58 57 57 57 58 57 56 58 59 53 61 58 57 57 59 55
14 27 27 23 20 19 18 17 18 21 21 17 18 20 18 15 19 19 18 21 19 18 23 28 19 17 15 13 14 16 15 18 23 24 23 23 21 21 28 49 48 45 50 52 54 55 55 57 57 57 58 59 58 60 62 62 61 61 62 61 60 59 59 59 60 59 59 59 59 59 56 56 56 56 58 58 60 57 57 60 58 59 62 57 57 58
10 13 20 21 22 20 18 16 21 17 17 13 31 26 16 17 19 20 18 16 18 22 24 21 17 16 14 15 16 15 17 17 21 23 24 20 22 24 28 32 47 48 49 48 49 53 55 56 57 56 57 58 59 60 61 61 61 61 62 61 60 59 58 59 59 57 58 57 58 58 58 56 57 57 56 58 58 59 58 59 57 57 60 57 58 59
25 23 24 22 21 16 14 15 22 20 16 21 26 19 21 18 24 20 16 17 19 20 15 18 17 16 15 17 16 15 16 20 21 27 22 19 18 20 22 24 28 35 46 46 47 48 52 55 56 58 59 59 59 61 61 61 61 61 62 61 60 59 59 60 59 57 57 58 57 58 57 57 57 56 56 55 54 58 58 59 60 58 55 57 57 54
16 16 16 21 17 15 15 12 9 19 16 21 19 17 21 22 22 22 20 18 21 20 17 17 20 14 15 20 17 14 15 20 22 24 22 22 20 19 24 26 31 31 38 37 42 46 52 55 56 57 59 59 58 61 62 61 61 61 62 60 59 59 59 59 58 57 58 58 57 58 58 58 56 55 55 54 55 57 59 58 58 58 59 56 58 57
17 25 22 14 15 14 15 16 13 13 18 21 23 21 20 18 19 20 21 20 22 18 18 20 21 17 14 18 21 30 20 19 22 21 22 23 24 24 33 28 31 29 33 33 35 43 50 54 57 58 58 59 59 61 61 61 60 60 62 59 59 59 59 59 57 57 58 57 57 57 58 58 55 55 56 54 55 55 58 57 57 59 57 57 57 57
10 13 15 14 13 9 9 9 14 15 15 16 18 18 17 17 20 22 22 23 19 17 17 15 18 22 13 14 20 26 23 21 27 29 30 30 29 29 35 28 26 26 30 30 34 39 50 51 52 55 55 56 59 61 61 62 62 60 61 59 58 58 59 59 57 58 57 57 56 58 57 58 55 55 55 54 54 55 56 57 57 59 57 56 57 59
18 15 14 11 17 8 6 5 5 7 13 12 13 13 18 17 18 16 20 18 17 17 17 19 22 15 13 20 23 17 15 20 29 24 34 33 28 32 28 28 28 29 29 35 42 44 50 54 57 57 54 56 59 60 61 62 62 61 61 59 58 58 59 58 56 57 57 57 56 57 56 59 56 56 56 54 56 55 57 55 56 57 56 56 55 58
18 16 16 15 11 12 10 8 8 4 8 10 10 15 17 16 17 17 15 22 23 21 24 26 21 17 16 18 18 18 20 20 24 29 32 30 33 33 25 30 27 35 34 39 43 49 50 51 52 56 54 54 59 59 59 61 62 60 61 60 58 57 59 58 56 56 57 57 57 58 55 58 57 57 58 55 55 56 56 56 57 56 56 56 56 57
16 16 17 16 16 13 10 7 8 11 9 9 11 8 14 16 16 16 14 14 14 15 17 17 19 18 16 21 22 21 22 22 23 24 30 33 31 34 24 25 32 36 40 45 48 50 52 54 55 58 59 61 61 59 59 61 61 61 60 60 58 57 59 58 56 56 56 57 57 58 56 58 56 58 58 56 57 56 57 56 56 57 58 57 55 56
11 12 14 10 11 11 11 9 8 6 7 8 11 9 12 17 17 13 17 15 15 15 17 19 18 19 25 24 30 25 22 21 21 23 27 26 25 28 30 34 36 39 44 47 49 51 53 54 55 56 58 58 59 59 60 59 61 61 61 60 58 57 59 58 56 56 55 56 57 58 57 57 57 56 57 57 56 57 59 58 56 58 59 58 57 56
7 9 9 8 9 9 10 11 7 5 11 16 8 12 9 15 14 18 20 21 22 16 14 18 22 21 28 22 21 22 20 18 19 21 20 24 27 33 33 35 38 40 43 49 50 50 51 51 53 53 54 56 58 58 60 61 61 60 60 60 61 59 58 58 56 56 56 57 57 58 58 57 58 56 57 57 58 57 59 60 58 57 58 60 57 57
12 12 9 7 10 10 10 7 6 7 6 5 6 9 8 10 18 19 13 17 16 13 17 19 21 12 21 22 25 20 18 17 18 18 21 30 32 34 38 41 43 44 47 48 49 50 50 50 50 51 53 53 55 56 58 56 61 62 63 59 59 59 59 59 56 56 56 57 57 57 58 58 59 58 57 57 59 58 56 59 60 59 56 59 59 57
16 13 12 9 7 6 6 6 9 10 8 3 4 1 6 12 12 14 16 11 11 12 12 14 9 11 9 13 16 19 19 20 19 19 26 27 31 35 38 40 42 45 47 48 49 49 49 50 50 52 52 51 53 57 58 57 60 61 58 58 59 58 58 60 58 56 56 57 57 57 58 59 59 60 60 59 60 58 57 58 59 59 58 58 59 58
19 14 12 12 9 4 4 8 11 12 8 5 3 2 2 7 15 16 17 15 16 14 16 20 16 12 22 28 20 20 22 22 19 21 24 26 31 36 37 39 40 43 45 45 47 49 49 49 49 49 52 50 53 54 56 58 60 58 60 59 58 59 59 59 61 59 57 57 58 58 58 59 57 58 59 61 61 59 58 57 58 59 59 59 58 59
16 24 15 14 9 4 4 10 10 9 13 9 5 9 9 20 14 6 19 10 13 14 13 13 11 21 29 28 27 26 28 34 32 29 35 32 33 35 37 40 41 41 43 45 46 47 49 49 49 49 50 49 51 53 54 55 56 58 59 58 57 58 57 58 59 59 59 60 58 59 60 60 60 61 60 60 60 59 59 60 59 59 59 58 58 57
14 15 13 11 7 8 8 7 7 8 7 12 16 17 21 31 27 13 11 11 13 15 15 11 10 16 37 33 27 23 27 30 29 35 30 30 34 37 39 40 40 40 41 42 43 45 46 48 48 48 49 49 50 51 52 53 54 54 57 55 56 56 56 58 57 60 59 59 60 59 60 60 60 60 61 59 61 60 60 59 59 59 59 58 58 57
26 23 21 16 11 8 7 5 4 4 9 12 13 13 12 16 15 15 14 16 22 17 19 23 17 25 31 32 26 30 28 26 30 35 30 33 36 38 38 38 39 40 38 40 41 41 42 44 44 43 46 47 52 52 52 53 53 54 54 54 54 55 55 55 55 57 60 60 60 60 60 60 61 60 59 61 60 59 57 58 59 59 59 58 57 55
24 21 16 10 10 10 7 3 2 2 7 10 12 13 11 12 16 15 13 16 15 16 12 14 16 23 33 32 32 31 33 32 35 33 37 34 37 37 37 38 38 38 40 39 41 42 41 41 44 42 43 43 45 48 49 53 53 54 54 54 53 55 55 56 57 58 59 58 60 59 60 59 59 59 60 60 61 59 59 59 61 58 58 58 59 55
21 21 15 9 8 7 7 3 -4 -6 -1 10 11 16 12 10 12 17 15 16 14 16 15 15 13 16 30 30 24 29 30 29 28 32 32 33 37 35 35 36 37 38 38 37 37 38 39 37 36 36 37 38 41 42 47 45 45 46 50 52 54 55 55 56 57 58 59 59 58 60 60 60 62 61 61 61 61 60 59 59 58 59 57 58 57 56
21 23 19 13 11 10 9 7 7 7 12 12 12 14 15 10 17 14 14 17 16 19 16 16 15 25 27 27 23 23 23 24 25 25 27 31 34 35 36 37 38 38 38 37 38 39 41 35 30 32 36 33 36 37 39 42 42 43 44 47 50 48 53 53 54 55 55 55 56 58 58 60 60 59 58 59 59 60 60 59 60 60 59 58 58 59
22 22 19 17 14 12 10 7 13 10 16 11 12 10 11 12 15 20 17 17 15 19 16 17 18 20 19 18 22 23 27 23 24 26 27 28 33 36 36 37 37 38 38 37 38 37 38 39 39 34 36 33 34 34 35 36 36 38 43 45 42 42 46 51 51 51 52 54 54 55 56 58 59 60 59 59 59 59 60 59 60 60 60 60 59 58
19 20 18 20 17 12 10 9 10 9 11 10 11 13 11 12 16 19 17 16 23 17 14 19 22 23 24 18 20 23 23 27 28 29 32 38 31 32 34 34 38 34 37 38 39 37 37 37 39 41 40 38 31 29 31 32 33 34 39 38 39 40 50 48 52 51 49 53 54 53 56 58 59 59 59 58 59 59 59 60 58 57 58 59 58 58
21 17 20 20 16 13 13 12 11 10 11 13 13 16 16 12 18 23 25 19 21 18 14 20 22 23 18 20 22 21 22 22 24 30 32 36 28 29 32 31 30 31 33 34 38 40 39 38 39 41 39 37 37 35 36 31 33 39 38 36 36 40 42 47 50 48 48 50 51 54 54 54 54 59 59 58 58 58 58 58 58 58 58 58 57 58
24 21 21 18 19 18 16 15 14 12 11 9 13 14 14 18 19 19 18 19 21 22 22 21 23 24 21 19 22 24 27 24 23 26 33 25 26 26 28 30 30 29 29 31 36 38 39 40 39 39 41 43 33 31 30 33 32 32 36 37 35 40 42 45 51 47 44 46 49 51 50 51 55 54 54 53 53 55 57 56 57 57 56 57 57 57
21 18 25 24 22 21 19 16 15 13 16 17 16 15 16 17 17 19 21 23 25 23 23 23 23 23 21 23 22 24 28 24 25 24 23 25 24 27 27 28 30 29 29 30 35 36 36 38 39 38 37 38 37 37 37 39 32 32 34 35 32 33 36 33 41 46 50 46 49 46 49 50 50 52 51 53 54 54 53 52 54 55 55 56 57 57
26 21 23 24 22 21 19 19 17 16 18 18 21 22 22 22 22 22 22 22 22 24 22 24 23 23 20 23 22 21 22 20 20 21 23 25 22 25 27 27 27 28 28 31 35 36 35 35 37 38 38 37 37 35 34 35 30 31 33 33 31 30 34 44 48 49 48 47 49 47 45 48 46 48 49 51 50 51 50 51 50 50 53 54 56 57
24 24 21 22 20 21 19 19 18 20 21 19 22 24 21 21 19 20 20 23 24 23 23 20 20 20 21 22 21 22 23 22 23 22 24 27 30 27 22 24 25 26 26 29 31 33 33 32 35 40 37 36 34 30 30 30 34 37 35 38 45 31 44 40 42 36 47 47 41 39 47 47 46 45 48 47 47 51 52 50 50 49 50 52 55 55
23 23 21 23 20 20 20 21 21 19 14 15 22 24 24 22 21 22 22 22 23 23 18 19 18 21 23 25 25 24 24 23 24 24 25 28 30 30 27 27 27 27 29 30 30 32 33 37 38 39 39 39 36 35 36 38 34 36 45 36 31 37 32 29 32 40 38 45 46 46 44 42 41 42 45 47 47 49 46 47 46 51 52 51 52 55
21 20 18 19 19 19 21 21 17 15 15 20 20 19 21 23 20 20 23 22 22 22 23 19 20 21 25 24 23 27 27 27 28 24 25 22 28 28 27 26 28 29 31 32 34 33 37 40 40 41 40 38 35 40 40 33 36 40 35 45 35 38 40 34 31 41 46 46 43 44 43 39 41 44 44 44 44 46 45 46 49 49 51 52 53 52
21 19 19 19 18 19 18 17 13 13 18 20 19 21 23 21 21 22 21 20 19 21 23 17 21 21 22 20 20 23 25 25 25 25 25 24 26 30 30 29 29 28 30 34 37 39 38 35 37 37 38 39 35 31 29 34 37 35 37 36 36 38 37 34 34 33 44 44 44 38 40 41 45 47 46 45 48 47 46 48 51 50 52 51 52 52
21 18 18 18 22 16 17 16 15 19 18 18 21 30 29 25 23 22 19 24 27 23 24 24 23 22 22 22 22 22 26 25 24 25 30 26 29 31 30 30 31 32 34 34 34 35 40 39 34 37 38 38 36 34 35 34 35 39 37 34 33 32 32 38 35 31 41 41 38 40 40 42 42 46 47 46 45 44 46 48 48 49 49 49 51 51
18 22 24 19 19 17 14 13 14 13 12 17 28 28 29 31 30 28 25 22 26 25 25 24 22 21 22 22 23 23 28 23 24 28 28 28 29 31 30 30 35 29 30 30 31 31 34 36 34 34 39 37 37 34 32 35 38 37 36 35 33 32 32 30 33 33 34 35 35 39 39 40 37 41 45 48 44 47 49 50 50 49 51 49 50 49
15 17 20 17 17 16 16 14 14 12 15 27 28 28 29 27 28 28 21 14 24 24 24 24 24 25 26 25 24 27 24 21 24 28 27 29 27 27 28 28 27 27 28 28 31 34 30 36 32 30 30 31 30 33 37 37 36 35 35 36 35 35 34 36 36 37 36 38 37 37 38 40 41 42 44 43 45 49 49 49 48 48 50 50 50 49
16 15 14 14 18 16 16 14 14 17 17 28 26 26 25 26 29 25 14 15 26 24 24 23 22 23 25 25 25 24 22 20 25 27 27 28 27 28 27 26 26 27 25 25 27 32 29 30 30 32 32 30 34 37 34 35 34 37 37 36 37 37 36 37 38 36 37 38 40 41 41 46 45 47 46 44 46 49 48 49 49 50 49 51 47 44
16 16 15 13 13 15 19 15 15 17 29 29 25 25 25 30 24 16 14 22 26 25 24 25 24 24 24 24 24 23 24 25 24 25 27 26 26 27 27 27 26 25 24 23 25 32 23 24 27 25 28 29 32 33 33 33 36 37 35 37 37 37 38 39 38 38 37 38 39 39 39 40 43 49 50 48 48 48 48 49 49 50 48 49 45 44
18 19 19 19 15 13 14 17 14 17 30 29 26 26 26 26 17 18 21 25 26 22 24 22 24 24 24 23 23 23 24 24 25 25 25 24 25 27 25 25 27 26 26 28 32 30 27 23 29 29 28 29 30 30 31 33 35 35 34 35 37 39 39 37 36 38 38 39 38 39 39 41 46 49 49 48 48 47 47 47 46 48 48 49 44 43
15 16 15 15 18 17 17 15 13 12 28 29 26 22 24 21 22 23 24 24 23 22 22 22 22 22 22 23 23 25 24 22 24 24 25 25 24 25 25 25 26 26 27 27 27 24 27 25 25 25 29 29 29 30 31 32 32 32 35 35 37 38 38 38 39 37 38 38 38 39 41 45 47 47 46 45 46 45 45 45 44 49 49 46 43 42
18 15 14 14 15 12 13 13 15 23 23 25 22 20 24 21 21 23 22 21 22 22 22 21 22 22 22 23 23 23 23 23 24 24 23 24 24 25 24 23 24 24 26 24 23 23 24 23 24 25 28 28 28 28 29 32 32 33 34 35 36 37 39 38 38 38 38 40 40 41 40 38 40 43 45 45 46 46 46 47 49 48 46 44 42 40
19 15 20 14 18 19 16 17 20 22 21 18 22 19 20 22 22 21 21 19 18 18 20 20 22 22 21 22 22 21 21 21 21 21 21 22 23 22 21 22 24 24 23 23 22 24 23 20 24 24 24 25 29 28 29 31 32 33 34 35 36 34 35 36 37 39 39 39 39 40 37 40 42 42 44 44 44 44 44 49 48 46 45 43 41 39
16 19 18 16 13 16 15 16 18 15 16 16 17 19 18 20 18 19 18 17 19 19 20 19 20 21 22 23 21 21 21 20 21 21 20 19 19 19 23 20 19 22 22 23 24 25 24 22 24 25 26 25 26 28 31 31 30 33 35 35 35 34 35 37 38 38 39 37 38 37 35 38 38 39 41 45 45 45 46 47 44 44 43 40 39 37
19 21 17 13 14 13 13 15 14 15 16 17 16 17 18 18 17 18 19 20 19 20 20 20 20 20 21 22 21 21 21 21 21 21 21 20 20 20 18 19 20 20 22 21 23 25 24 23 21 23 26 28 29 29 30 31 32 31 33 34 34 34 35 35 37 39 40 40 38 38 37 38 40 42 43 43 44 45 47 46 43 41 39 38 36 34
14 18 14 14 14 14 14 14 16 17 20 19 17 17 18 18 18 19 20 20 20 21 20 19 19 18 19 19 20 20 20 20 19 20 19 19 19 18 16 18 19 19 21 21 22 24 23 23 22 24 25 28 29 30 31 31 31 30 32 33 33 34 36 38 39 40 40 39 39 38 38 40 38 40 41 42 45 45 46 45 42 38 37 35 35 32
14 18 13 15 14 14 15 15 16 17 17 17 18 18 18 18 18 19 19 20 19 18 18 18 19 19 19 19 21 20 19 20 20 22 19 17 19 19 19 19 19 19 21 21 23 26 24 23 22 24 25 28 29 31 31 31 32 31 32 33 32 34 36 43 39 39 39 39 38 39 41 42 41 41 43 41 39 38 38 40 41 38 37 38 37 35
17 15 16 18 16 15 15 16 18 16 16 15 17 18 18 18 19 20 21 20 21 21 21 21 22 23 24 27 28 27 27 28 27 25 23 23 23 24 25 24 23 21 19 20 22 23 23 25 27 28 28 29 32 32 32 33 33 34 33 34 34 36 39 41 42 39 38 38 39 40 40 41 41 42 41 39 36 34 33 32 33 34 32 32 33 33
15 17 18 17 17 16 17 16 18 18 18 18 19 19 20 20 21 21 22 22 23 25 28 29 29 29 29 30 30 30 29 28 28 28 28 27 28 28 27 26 26 28 28 25 23 23 23 25 29 30 30 32 34 34 33 32 32 34 40 40 39 39 39 38 38 38 38 38 38 41 41 40 41 41 37 35 34 33 31 31 31 32 33 33 32 32